BHUTAN-1

Last updated on Nov. 19, 2020, 6:04 a.m. UTC

1 43591U 98067PF  20323.57107911  .11695971  12499-4  37838-3 0  9993
2 43591  51.6155 198.6835 0005882 255.3071 104.7305 16.44501217130390

Satellite is not in orbit.